�������l�o���
Date,Time,MP-1(��Sv/h),MP-2(��Sv/h),MP-3(��Sv/h),MP-4(��Sv/h),MP-5(��Sv/h),MP-6(��Sv/h),MP-7(��Sv/h),MP-8(��Sv/h),����,����(m/s),���J
2023/11/29,00:00,0.529,0.803,0.498,1.006,0.721,0.318,0.571,0.532,��,3.3,�L
2023/11/29,00:10,0.529,0.802,0.497,1.005,0.720,0.319,0.568,0.531,�쐼,3.0,�L
2023/11/29,00:20,0.529,0.805,0.496,1.003,0.721,0.318,0.569,0.533,���쐼,6.2,��
2023/11/29,00:30,0.528,0.803,0.497,1.005,0.720,0.318,0.572,0.532,���쐼,6.1,�L
2023/11/29,00:40,0.527,0.804,0.496,1.007,0.721,0.318,0.571,0.532,���쐼,5.5,�L
2023/11/29,00:50,0.528,0.803,0.496,1.003,0.720,0.318,0.571,0.531,���쐼,5.0,��
2023/11/29,01:00,0.527,0.800,0.495,1.004,0.720,0.318,0.570,0.531,�쐼,3.4,��
2023/11/29,01:10,0.529,0.801,0.495,1.003,0.720,0.318,0.571,0.532,�쐼,2.5,��
2023/11/29,01:20,0.527,0.800,0.495,1.003,0.719,0.318,0.570,0.532,��쐼,3.1,�L
2023/11/29,01:30,0.529,0.800,0.494,1.003,0.720,0.318,0.571,0.532,�쐼,3.4,�L
2023/11/29,01:40,0.526,0.799,0.495,1.003,0.722,0.318,0.571,0.532,�쐼,3.4,��
2023/11/29,01:50,0.527,0.800,0.494,1.004,0.720,0.319,0.571,0.532,���쐼,5.4,��
2023/11/29,02:00,0.527,0.800,0.494,1.005,0.720,0.317,0.571,0.530,�쐼,5.8,��
2023/11/29,02:10,0.527,0.801,0.495,1.003,0.718,0.317,0.571,0.531,�쐼,4.7,�L
2023/11/29,02:20,0.527,0.800,0.493,1.003,0.720,0.318,0.571,0.530,�쐼,4.6,�L
2023/11/29,02:30,0.527,0.799,0.495,1.002,0.718,0.317,0.570,0.530,�쐼,4.7,�L
2023/11/29,02:40,0.526,0.800,0.495,1.003,0.721,0.317,0.570,0.530,�쐼,5.7,�L
2023/11/29,02:50,0.527,0.798,0.494,1.003,0.721,0.317,0.570,0.531,���쐼,5.9,��
2023/11/29,03:00,0.526,0.800,0.495,1.002,0.721,0.318,0.571,0.529,���쐼,7.4,��
2023/11/29,03:10,0.526,0.797,0.495,1.005,0.720,0.317,0.570,0.531,�쐼,6.3,��
2023/11/29,03:20,0.527,0.802,0.494,1.003,0.718,0.318,0.569,0.531,���쐼,6.6,��
2023/11/29,03:30,0.527,0.800,0.494,1.004,0.720,0.318,0.570,0.531,�쐼,6.5,��
2023/11/29,03:40,0.527,0.801,0.494,1.002,0.717,0.318,0.569,0.530,�쐼,8.1,��
2023/11/29,03:50,0.526,0.800,0.493,1.003,0.720,0.316,0.571,0.530,�쐼,6.5,��
2023/11/29,04:00,0.527,0.799,0.494,1.004,0.720,0.317,0.570,0.531,���쐼,6.8,��
2023/11/29,04:10,0.527,0.801,0.494,1.005,0.720,0.316,0.570,0.531,�쐼,7.9,��
2023/11/29,04:20,0.526,0.799,0.495,1.003,0.718,0.317,0.571,0.531,���쐼,5.8,��
2023/11/29,04:30,0.527,0.799,0.493,1.002,0.720,0.319,0.571,0.531,�쐼,3.9,��
2023/11/29,04:40,0.527,0.800,0.495,1.004,0.719,0.318,0.569,0.531,�쐼,3.0,�L
2023/11/29,04:50,0.526,0.801,0.494,1.004,0.717,0.318,0.571,0.529,���쐼,2.8,�L
2023/11/29,05:00,0.527,0.800,0.495,1.003,0.718,0.318,0.570,0.531,��,4.4,�L
2023/11/29,05:10,0.527,0.801,0.494,1.002,0.719,0.317,0.571,0.529,��,4.5,��
2023/11/29,05:20,0.528,0.798,0.493,1.004,0.719,0.318,0.572,0.530,���쐼,5.1,��
2023/11/29,05:30,0.527,0.801,0.493,1.003,0.718,0.317,0.570,0.530,�쐼,5.0,��
2023/11/29,05:40,0.527,0.800,0.494,1.001,0.719,0.318,0.570,0.530,��쐼,4.9,��
2023/11/29,05:50,0.526,0.796,0.495,1.004,0.720,0.317,0.570,0.529,��쐼,5.5,��
2023/11/29,06:00,0.527,0.799,0.494,1.005,0.719,0.317,0.569,0.531,��쐼,5.9,��
2023/11/29,06:10,0.525,0.800,0.493,1.002,0.718,0.317,0.569,0.530,��쐼,4.8,��
2023/11/29,06:20,0.527,0.799,0.493,1.002,0.719,0.317,0.572,0.530,�쐼,3.5,�L
2023/11/29,06:30,0.527,0.801,0.493,1.005,0.719,0.318,0.569,0.531,�쐼,2.8,��
2023/11/29,06:40,0.527,0.799,0.495,1.002,0.717,0.318,0.570,0.530,���쐼,2.8,��
2023/11/29,06:50,0.527,0.799,0.495,1.005,0.719,0.318,0.569,0.531,���쐼,2.6,��
2023/11/29,07:00,0.528,0.800,0.493,1.004,0.718,0.318,0.571,0.531,���쐼,3.1,��
2023/11/29,07:10,0.526,0.800,0.494,1.003,0.719,0.317,0.570,0.531,��쐼,3.3,��
2023/11/29,07:20,0.526,0.799,0.494,1.001,0.720,0.317,0.570,0.531,��쐼,2.8,��
2023/11/29,07:30,0.527,0.800,0.495,1.004,0.719,0.316,0.568,0.531,��,2.8,��
2023/11/29,07:40,0.527,0.800,0.495,1.002,0.720,0.316,0.570,0.531,��쐼,2.3,��
2023/11/29,07:50,0.527,0.801,0.493,1.003,0.716,0.318,0.570,0.530,���쐼,2.3,��
2023/11/29,08:00,0.527,0.801,0.493,1.002,0.717,0.319,0.569,0.529,���쐼,2.0,��
2023/11/29,08:10,0.526,0.799,0.494,1.002,0.718,0.317,0.571,0.532,-,CALM,��
2023/11/29,08:20,0.529,0.801,0.493,1.003,0.720,0.317,0.572,0.530,�쐼,1.2,��
2023/11/29,08:30,0.528,0.800,0.495,1.002,0.719,0.317,0.570,0.531,���쐼,1.1,��
2023/11/29,08:40,0.527,0.801,0.495,1.003,0.720,0.318,0.570,0.532,���쐼,2.0,��
2023/11/29,08:50,0.527,0.799,0.493,1.005,0.717,0.316,0.572,0.530,���쐼,3.6,��
2023/11/29,09:00,0.527,0.800,0.495,1.003,0.719,0.318,0.570,0.531,��,4.9,��
2023/11/29,09:10,0.528,0.801,0.494,1.003,0.718,0.318,0.571,0.531,��,4.8,��
2023/11/29,09:20,0.529,0.801,0.495,1.004,0.719,0.317,0.571,0.531,��,5.1,��
2023/11/29,09:30,0.528,0.797,0.495,1.006,0.718,0.319,0.571,0.532,��,4.6,��
2023/11/29,09:40,0.529,0.802,0.494,1.003,0.718,0.318,0.570,0.532,���쐼,5.1,��
2023/11/29,09:50,0.528,0.802,0.497,1.003,0.722,0.317,0.567,0.531,��,5.3,��
2023/11/29,10:00,0.529,0.799,0.496,1.004,0.722,0.318,0.567,0.532,��,4.3,��
2023/11/29,10:10,0.529,0.798,0.496,1.004,0.721,0.319,0.568,0.531,��,4.1,��
2023/11/29,10:20,0.529,0.796,0.496,1.005,0.721,0.318,0.569,0.532,��,3.5,��
2023/11/29,10:30,0.527,0.798,0.496,1.005,0.720,0.320,0.570,0.531,��,4.0,��
2023/11/29,10:40,0.528,0.799,0.492,1.004,0.721,0.319,0.567,0.532,��,2.6,��
2023/11/29,10:50,0.529,0.797,0.494,1.004,0.721,0.318,0.569,0.532,���k��,3.1,��
2023/11/29,11:00,0.527,0.796,0.495,1.004,0.721,0.319,0.568,0.532,���k��,2.0,��
2023/11/29,11:10,0.529,0.795,0.496,1.007,0.723,0.318,0.569,0.532,�k��,1.7,��
2023/11/29,11:20,0.528,0.797,0.495,1.004,0.721,0.319,0.570,0.531,�k��,3.3,��
2023/11/29,11:30,0.529,0.796,0.495,1.007,0.721,0.319,0.570,0.533,��,1.9,��
2023/11/29,11:40,0.527,0.797,0.496,1.005,0.722,0.319,0.569,0.532,���k��,3.0,��
2023/11/29,11:50,0.527,0.795,0.496,1.005,0.718,0.318,0.570,0.531,�k��,1.7,��
2023/11/29,12:00,0.526,0.793,0.495,1.004,0.720,0.319,0.571,0.532,�k��,3.3,��
2023/11/29,12:10,0.527,0.798,0.495,1.004,0.720,0.319,0.569,0.533,���k��,4.4,��
2023/11/29,12:20,0.525,0.798,0.495,1.006,0.717,0.320,0.570,0.532,���k��,5.1,��
2023/11/29,12:30,0.527,0.799,0.497,1.007,0.719,0.319,0.570,0.531,���k��,7.5,��
2023/11/29,12:40,0.526,0.800,0.497,1.005,0.719,0.319,0.569,0.530,���k��,7.6,��
2023/11/29,12:50,0.529,0.800,0.496,1.005,0.718,0.319,0.569,0.530,���k��,6.3,��
2023/11/29,13:00,0.528,0.800,0.497,1.007,0.719,0.320,0.569,0.530,��,6.2,��
2023/11/29,13:10,0.527,0.799,0.495,1.005,0.720,0.320,0.570,0.530,��,5.3,��
2023/11/29,13:20,0.527,0.798,0.495,1.004,0.722,0.319,0.570,0.530,��,6.9,��
2023/11/29,13:30,0.528,0.799,0.495,1.005,0.722,0.320,0.571,0.532,���k��,6.6,��
2023/11/29,13:40,0.527,0.797,0.495,1.005,0.721,0.319,0.570,0.532,�k��,5.2,��
2023/11/29,13:50,0.528,0.797,0.498,1.003,0.723,0.319,0.569,0.530,�k��,6.0,��
2023/11/29,14:00,0.528,0.798,0.496,1.005,0.721,0.320,0.570,0.530,���k��,7.9,��
2023/11/29,14:10,0.528,0.799,0.496,1.004,0.722,0.317,0.571,0.531,���k��,8.1,��
2023/11/29,14:20,0.528,0.799,0.495,1.007,0.721,0.318,0.570,0.531,���k��,7.9,��
2023/11/29,14:30,0.529,0.798,0.496,1.006,0.721,0.318,0.570,0.532,���k��,6.7,��
2023/11/29,14:40,0.529,0.801,0.497,1.005,0.721,0.319,0.571,0.530,���k��,6.5,��
2023/11/29,14:50,0.529,0.800,0.497,1.003,0.723,0.319,0.570,0.533,��,6.8,��
2023/11/29,15:00,0.529,0.803,0.498,1.005,0.721,0.320,0.572,0.533,��,7.2,��
2023/11/29,15:10,0.528,0.803,0.497,1.005,0.722,0.319,0.570,0.532,��,6.8,��
2023/11/29,15:20,0.529,0.802,0.497,1.005,0.722,0.320,0.572,0.532,��,7.4,��
2023/11/29,15:30,0.528,0.800,0.497,1.008,0.722,0.318,0.571,0.533,��,8.2,��
2023/11/29,15:40,0.529,0.803,0.498,1.006,0.721,0.318,0.571,0.534,��,8.0,��
2023/11/29,15:50,0.530,0.803,0.494,1.006,0.720,0.318,0.570,0.533,��,6.1,��
2023/11/29,16:00,0.527,0.802,0.495,1.007,0.720,0.318,0.569,0.533,��,6.5,��
2023/11/29,16:10,0.528,0.802,0.496,1.005,0.719,0.318,0.571,0.533,��,6.5,��
2023/11/29,16:20,0.528,0.802,0.496,1.006,0.719,0.317,0.571,0.532,��,6.9,��
2023/11/29,16:30,0.528,0.804,0.495,1.006,0.721,0.318,0.571,0.532,��,8.3,��
2023/11/29,16:40,0.529,0.803,0.497,1.006,0.722,0.318,0.571,0.533,���k��,7.2,��
2023/11/29,16:50,0.526,0.805,0.496,1.007,0.720,0.318,0.571,0.534,���k��,5.2,��
2023/11/29,17:00,0.528,0.802,0.495,1.006,0.721,0.320,0.573,0.533,���k��,4.9,��
2023/11/29,17:10,0.528,0.803,0.495,1.006,0.720,0.318,0.571,0.532,���k��,4.9,��
2023/11/29,17:20,0.530,0.801,0.497,1.006,0.720,0.318,0.573,0.532,��,6.1,��
2023/11/29,17:30,0.528,0.803,0.495,1.006,0.720,0.318,0.571,0.534,��,8.3,��
2023/11/29,17:40,0.527,0.802,0.496,1.006,0.721,0.318,0.571,0.532,��,9.3,�L
2023/11/29,17:50,0.527,0.804,0.498,1.005,0.722,0.318,0.570,0.533,��,8.3,��
2023/11/29,18:00,0.529,0.802,0.494,1.005,0.718,0.319,0.572,0.534,��,8.8,��
2023/11/29,18:10,0.529,0.801,0.496,1.005,0.721,0.318,0.572,0.533,��,9.0,��
2023/11/29,18:20,0.529,0.802,0.495,1.006,0.720,0.319,0.571,0.533,��,10.2,��
2023/11/29,18:30,0.529,0.804,0.495,1.008,0.722,0.318,0.571,0.533,��,10.0,��
2023/11/29,18:40,0.528,0.802,0.496,1.006,0.720,0.318,0.573,0.533,��,9.4,��
2023/11/29,18:50,0.528,0.802,0.494,1.006,0.721,0.317,0.572,0.531,��,8.4,��
2023/11/29,19:00,0.528,0.803,0.496,1.006,0.722,0.318,0.571,0.532,��,7.8,��
2023/11/29,19:10,0.528,0.803,0.497,1.006,0.721,0.320,0.572,0.532,��,9.1,��
2023/11/29,19:20,0.528,0.800,0.497,1.007,0.722,0.318,0.572,0.533,��,8.0,��
2023/11/29,19:30,0.529,0.802,0.496,1.006,0.723,0.319,0.571,0.531,��,9.4,��
2023/11/29,19:40,0.528,0.803,0.495,1.007,0.722,0.318,0.571,0.533,��,8.5,��
2023/11/29,19:50,0.527,0.801,0.495,1.006,0.722,0.318,0.573,0.533,��,8.8,��
2023/11/29,20:00,0.529,0.801,0.497,1.007,0.720,0.320,0.572,0.532,��,7.8,��
2023/11/29,20:10,0.530,0.802,0.497,1.006,0.722,0.317,0.571,0.532,��,8.4,�L
2023/11/29,20:20,0.527,0.802,0.495,1.007,0.722,0.320,0.573,0.532,��,7.2,�L
2023/11/29,20:30,0.528,0.804,0.496,1.006,0.720,0.318,0.573,0.532,��,8.3,��
2023/11/29,20:40,0.529,0.803,0.496,1.005,0.721,0.317,0.573,0.532,��,7.6,��
2023/11/29,20:50,0.527,0.802,0.496,1.006,0.721,0.319,0.573,0.533,��,7.9,��
2023/11/29,21:00,0.528,0.802,0.496,1.008,0.722,0.318,0.572,0.532,���k��,7.6,��
2023/11/29,21:10,0.530,0.802,0.496,1.006,0.721,0.318,0.571,0.533,��,7.8,��
2023/11/29,21:20,0.527,0.803,0.495,1.007,0.721,0.318,0.570,0.533,��,6.6,��
2023/11/29,21:30,0.527,0.801,0.495,1.006,0.722,0.319,0.571,0.531,��,6.5,��
2023/11/29,21:40,0.528,0.801,0.495,1.006,0.721,0.318,0.571,0.532,��,5.9,��
2023/11/29,21:50,0.530,0.803,0.495,1.008,0.721,0.318,0.573,0.533,��,6.3,��
2023/11/29,22:00,0.529,0.800,0.497,1.005,0.720,0.317,0.570,0.531,��,6.8,��
2023/11/29,22:10,0.528,0.803,0.496,1.007,0.719,0.319,0.570,0.533,��,7.7,��
2023/11/29,22:20,0.528,0.800,0.495,1.008,0.722,0.319,0.571,0.533,��,10.6,��
2023/11/29,22:30,0.528,0.803,0.496,1.007,0.721,0.318,0.572,0.532,��,11.7,��
2023/11/29,22:40,0.529,0.800,0.496,1.006,0.722,0.318,0.571,0.531,��,10.8,��
2023/11/29,22:50,0.527,0.801,0.496,1.006,0.720,0.319,0.573,0.532,��,9.6,��
2023/11/29,23:00,0.529,0.801,0.496,1.008,0.722,0.319,0.571,0.532,��,8.4,��
2023/11/29,23:10,0.529,0.803,0.493,1.004,0.721,0.318,0.570,0.533,��,10.2,��
2023/11/29,23:20,0.528,0.801,0.495,1.006,0.722,0.318,0.571,0.533,��,10.3,��
2023/11/29,23:30,0.529,0.804,0.496,1.007,0.720,0.319,0.571,0.532,��,10.2,��
2023/11/29,23:40,0.528,0.804,0.495,1.008,0.721,0.320,0.572,0.531,��,9.9,��
2023/11/29,23:50,0.528,0.801,0.497,1.004,0.721,0.319,0.572,0.532,��,8.3,��
